Location: Härggis
(46.9540°N, 8.4897°E)
Time: 22:10:48
(UTC+00:00)

DEBRIS - Pass Details

Date: 27 May 2022
Orbit: 313 x 15071 km, 49.4° (Epoch: 03 July)

Event Time Altitude Azimuth Distance (km) Brightness Sun altitude
Rises 02:31:45 0° 287° (WNW) 7,952 8.4 -9.6°
Reaches altitude 10° 02:39:14 10° 288° (WNW) 4,974 7.4 -8.7°
Maximum altitude 02:49:15 86° 205° (SSW) 783 3.5 -7.5°
Drops below altitude 10° 02:52:25 10° 112° (ESE) 1,647 5.6 -7.1°
Sets 02:53:45 0° 112° (ESE) 2,289 6.4 -6.9°
